sat.trackr.live / text

‹ back to catalog

STARLINK-36801

NORAD 67888 · 2026-035K

PAYLOAD ACTIVE UNKNOWN

§ Identity

Operator
Country
US
Launch date
2026-02-21
Launch site
AFWTR
Launch vehicle
Mass (kg)
RCS (m²)

Purposes: comms

External: N2YO · Heavens-Above · Gunter

§ Orbital elements

Epoch: 2026-05-25T01:32:19.023648Z

Period
93.91 min
Inclination
97.2862°
Eccentricity
0.0001828
Mean motion
15.33458440 rev/d
Perigee alt
464.3 km
Apogee alt
466.8 km
Semi-major
6,843.6 km
B*
6.4841e-4
RAAN
78.6066°
Arg perigee
96.7770°
Mean anomaly
263.3681°
Rev number
1,569

§ Raw data

STARLINK-368011 67888U 26035K   26145.06410907  .00020925  00000+0  64841-3 0  99912 67888  97.2862  78.6066 0001828  96.7770 263.3681 15.33458440 15698

JSON: /api/v1/satellites/67888 · /tle

For live sub-satellite position, see the globe view (requires WebGL).

§ Visibility from observer

Set your observer location to see the next 7 days of passes ≥ 10°. The values pass through the URL so the page stays shareable.

No JS? Fill the form by hand. The geolocation button needs JavaScript.